Simultaneous Nadir Overpasses (SNOs) Predictions

Prediction of SNOs between GOES-15 and METOP-C Satellite Orbit:

Table of predicted SNOs for the next 14.0 days since TLE Epoch: 5/15/2022
Index Date Time (GOES-15) GOES-15 Lat,Lon METOP-C Lat,Lon Distance(km) Time Diff (sec)
1 05/15/2022 17:54:31 -0.19,-127.75 -0.66,-125.59 245.78 80
2 05/17/2022 06:13:30 0.19,-127.63 -0.40,-130.18 291.60 80
3 05/18/2022 05:50:11 0.20,-127.59 0.75,-125.20 273.17 80
4 05/19/2022 18:09:00 -0.20,-127.59 0.27,-129.75 245.93 80
5 05/20/2022 17:51:00 -0.21,-127.54 -0.83,-124.75 318.66 80
6 05/22/2022 06:09:59 0.21,-127.41 -0.24,-129.34 219.43 80
7 05/23/2022 05:46:38 0.21,-127.37 0.87,-124.34 345.07 80
8 05/24/2022 18:05:28 -0.21,-127.37 0.15,-128.89 174.04 80
9 05/25/2022 17:47:27 -0.22,-127.33 -0.96,-123.89 390.70 80
10 05/27/2022 06:06:26 0.21,-127.19 -0.10,-128.48 147.15 80
11 05/28/2022 05:43:06 0.22,-127.15 1.01,-123.48 417.12 80
